Time,TemperatureF,DewpointF,PressureIn,WindDirection,WindDirectionDegrees,WindSpeedMPH,WindSpeedGustMPH,Humidity,HourlyPrecipIn,Conditions,Clouds,dailyrainin,SolarRadiationWatts/m^2,SoftwareType,DateUTC
2013-02-15 00:04:00,26.5,25.0,30.03,SW,232,0.0,0.0,94,0.00,,,0.00,0,Wunderground v.1.15,2013-02-15 05:04:00,
2013-02-15 00:09:00,26.5,25.0,30.03,SW,232,0.0,0.0,94,0.00,,,0.00,0,Wunderground v.1.15,2013-02-15 05:09:00,
2013-02-15 00:14:00,26.4,24.9,30.03,SW,232,0.0,0.0,94,0.00,,,0.00,0,Wunderground v.1.15,2013-02-15 05:14:00,
2013-02-15 00:29:00,26.2,24.7,30.03,SW,232,0.0,0.0,94,0.00,,,0.00,0,Wunderground v.1.15,2013-02-15 05:29:00,
2013-02-15 00:39:00,26.2,24.7,30.03,SW,232,0.0,0.0,94,0.00,,,0.00,0,Wunderground v.1.15,2013-02-15 05:39:00,
2013-02-15 00:49:00,26.2,24.7,30.03,SW,232,0.0,0.0,94,0.00,,,0.00,0,Wunderground v.1.15,2013-02-15 05:49:00,
2013-02-15 01:04:00,26.5,25.3,30.03,SW,232,0.0,0.0,95,0.00,,,0.00,0,Wunderground v.1.15,2013-02-15 06:04:00,
2013-02-15 01:09:00,26.7,25.5,30.03,SW,232,0.0,0.0,95,0.00,,,0.00,0,Wunderground v.1.15,2013-02-15 06:09:00,
2013-02-15 01:19:00,26.7,25.5,30.03,SW,232,0.0,0.0,95,0.00,,,0.00,0,Wunderground v.1.15,2013-02-15 06:19:00,
2013-02-15 01:29:00,26.7,25.5,30.02,SW,232,0.0,0.0,95,0.00,,,0.00,0,Wunderground v.1.15,2013-02-15 06:29:00,
2013-02-15 01:39:00,26.6,25.4,30.02,SW,232,0.0,0.0,95,0.00,,,0.00,0,Wunderground v.1.15,2013-02-15 06:39:00,
2013-02-15 01:44:00,26.5,25.3,30.02,SW,232,0.0,0.0,95,0.00,,,0.00,0,Wunderground v.1.15,2013-02-15 06:44:00,
2013-02-15 01:54:00,26.3,24.8,30.02,SW,232,0.0,0.0,94,0.00,,,0.00,0,Wunderground v.1.15,2013-02-15 06:54:00,
2013-02-15 02:04:00,26.2,24.7,30.02,SW,232,0.0,0.0,94,0.00,,,0.00,0,Wunderground v.1.15,2013-02-15 07:04:00,
2013-02-15 02:14:00,26.0,24.8,30.02,SW,232,0.0,0.0,95,0.00,,,0.00,0,Wunderground v.1.15,2013-02-15 07:14:00,
2013-02-15 02:19:00,26.0,24.8,30.02,SW,232,0.0,0.0,95,0.00,,,0.00,0,Wunderground v.1.15,2013-02-15 07:19:00,
2013-02-15 02:29:00,25.9,24.7,30.02,SW,232,0.0,0.0,95,0.00,,,0.00,0,Wunderground v.1.15,2013-02-15 07:29:00,
2013-02-15 02:34:00,25.9,24.7,30.02,SW,232,0.0,0.0,95,0.00,,,0.00,0,Wunderground v.1.15,2013-02-15 07:34:00,
2013-02-15 02:44:00,25.8,24.6,30.02,SW,232,0.0,0.0,95,0.00,,,0.00,0,Wunderground v.1.15,2013-02-15 07:44:00,
2013-02-15 02:54:00,25.8,24.6,30.02,SW,232,0.0,0.0,95,0.00,,,0.00,0,Wunderground v.1.15,2013-02-15 07:54:00,
2013-02-15 02:59:00,25.8,24.6,30.01,SW,232,0.0,0.0,95,0.00,,,0.00,0,Wunderground v.1.15,2013-02-15 07:59:00,
2013-02-15 03:09:00,25.8,24.6,30.01,SW,232,0.0,0.0,95,0.00,,,0.00,0,Wunderground v.1.15,2013-02-15 08:09:00,
2013-02-15 03:19:00,26.1,24.9,30.01,SW,232,0.0,0.0,95,0.00,,,0.00,0,Wunderground v.1.15,2013-02-15 08:19:00,
2013-02-15 03:24:00,26.1,24.9,30.01,SW,232,0.0,0.0,95,0.00,,,0.00,0,Wunderground v.1.15,2013-02-15 08:24:00,
2013-02-15 03:34:00,26.0,24.8,30.01,SW,232,0.0,0.0,95,0.00,,,0.00,0,Wunderground v.1.15,2013-02-15 08:34:00,
2013-02-15 03:44:00,25.9,24.7,30.01,SW,232,0.0,0.0,95,0.00,,,0.00,0,Wunderground v.1.15,2013-02-15 08:44:00,
2013-02-15 03:49:00,25.8,24.6,30.01,SW,232,0.0,0.0,95,0.00,,,0.00,0,Wunderground v.1.15,2013-02-15 08:49:00,
2013-02-15 03:59:00,25.8,24.6,30.01,SW,232,0.0,0.0,95,0.00,,,0.00,0,Wunderground v.1.15,2013-02-15 08:59:00,
2013-02-15 04:04:00,25.8,24.6,30.01,SW,232,0.0,0.0,95,0.00,,,0.00,0,Wunderground v.1.15,2013-02-15 09:04:00,
2013-02-15 04:14:00,25.8,24.6,30.02,SW,232,0.0,0.0,95,0.00,,,0.00,0,Wunderground v.1.15,2013-02-15 09:14:00,
2013-02-15 04:24:00,25.7,24.5,30.02,SW,232,0.0,0.0,95,0.00,,,0.00,0,Wunderground v.1.15,2013-02-15 09:24:00,
2013-02-15 04:34:00,25.6,24.4,30.02,SW,232,0.0,0.0,95,0.00,,,0.00,0,Wunderground v.1.15,2013-02-15 09:34:00,
2013-02-15 04:44:00,25.6,24.4,30.01,SW,232,0.0,0.0,95,0.00,,,0.00,0,Wunderground v.1.15,2013-02-15 09:44:00,
2013-02-15 04:49:00,25.5,24.3,30.01,SW,232,0.0,0.0,95,0.00,,,0.00,0,Wunderground v.1.15,2013-02-15 09:49:00,
2013-02-15 04:59:00,25.4,24.2,30.01,SW,232,0.0,0.0,95,0.00,,,0.00,0,Wunderground v.1.15,2013-02-15 09:59:00,
2013-02-15 05:04:00,25.3,24.1,30.01,SW,232,0.0,0.0,95,0.00,,,0.00,0,Wunderground v.1.15,2013-02-15 10:04:00,
2013-02-15 05:14:00,25.2,24.0,30.01,SW,232,0.0,0.0,95,0.00,,,0.00,0,Wunderground v.1.15,2013-02-15 10:14:00,
2013-02-15 05:24:00,25.2,24.0,30.01,SW,232,0.0,0.0,95,0.00,,,0.00,0,Wunderground v.1.15,2013-02-15 10:24:00,
2013-02-15 05:34:00,25.1,23.9,30.01,SW,232,0.0,0.0,95,0.00,,,0.00,0,Wunderground v.1.15,2013-02-15 10:34:00,
2013-02-15 05:39:00,25.1,23.9,30.01,SW,232,0.0,0.0,95,0.00,,,0.00,0,Wunderground v.1.15,2013-02-15 10:39:00,
2013-02-15 05:44:00,25.1,23.9,30.01,SW,232,0.0,0.0,95,0.00,,,0.00,0,Wunderground v.1.15,2013-02-15 10:44:00,
2013-02-15 05:54:00,25.0,23.8,30.01,SW,232,0.0,0.0,95,0.00,,,0.00,0,Wunderground v.1.15,2013-02-15 10:54:00,
2013-02-15 05:59:00,24.9,23.7,30.01,SW,232,0.0,0.0,95,0.00,,,0.00,0,Wunderground v.1.15,2013-02-15 10:59:00,
2013-02-15 06:09:00,24.8,23.6,30.01,SW,232,0.0,0.0,95,0.00,,,0.00,0,Wunderground v.1.15,2013-02-15 11:09:00,
2013-02-15 06:14:00,24.8,23.6,30.01,SW,232,0.0,0.0,95,0.00,,,0.00,0,Wunderground v.1.15,2013-02-15 11:14:00,
2013-02-15 06:24:00,24.7,23.5,30.02,SW,232,0.0,0.0,95,0.00,,,0.00,0,Wunderground v.1.15,2013-02-15 11:24:00,
2013-02-15 06:29:00,24.6,23.4,30.01,SW,232,0.0,0.0,95,0.00,,,0.00,0,Wunderground v.1.15,2013-02-15 11:29:00,
2013-02-15 06:39:00,24.5,23.3,30.02,SW,232,0.0,0.0,95,0.00,,,0.00,0,Wunderground v.1.15,2013-02-15 11:39:00,
2013-02-15 06:44:00,24.5,23.3,30.02,SW,232,0.0,0.0,95,0.00,,,0.00,0,Wunderground v.1.15,2013-02-15 11:44:00,
2013-02-15 06:49:00,24.4,23.2,30.02,SW,232,0.0,0.0,95,0.00,,,0.00,0,Wunderground v.1.15,2013-02-15 11:49:00,
2013-02-15 07:04:00,24.2,23.0,30.03,SW,232,0.0,0.0,95,0.00,,,0.00,11,Wunderground v.1.15,2013-02-15 12:04:00,
2013-02-15 07:09:00,24.3,23.1,30.03,SW,232,0.0,0.0,95,0.00,,,0.00,12,Wunderground v.1.15,2013-02-15 12:09:00,
2013-02-15 07:19:00,24.4,23.2,30.03,SW,232,0.0,0.0,95,0.00,,,0.00,21,Wunderground v.1.15,2013-02-15 12:19:00,
2013-02-15 07:29:00,24.8,23.8,30.03,SW,232,0.0,0.0,96,0.00,,,0.00,25,Wunderground v.1.15,2013-02-15 12:29:00,
2013-02-15 07:39:00,25.2,24.2,30.03,SW,232,0.0,1.0,96,0.00,,,0.00,21,Wunderground v.1.15,2013-02-15 12:39:00,
2013-02-15 07:44:00,25.5,24.5,30.03,SW,232,0.0,0.0,96,0.00,,,0.00,18,Wunderground v.1.15,2013-02-15 12:44:00,
2013-02-15 07:54:00,25.8,24.8,30.04,SW,232,0.0,0.0,96,0.00,,,0.00,16,Wunderground v.1.15,2013-02-15 12:54:00,
2013-02-15 07:59:00,25.9,24.9,30.04,SW,232,0.0,0.0,96,0.00,,,0.00,18,Wunderground v.1.15,2013-02-15 12:59:00,
2013-02-15 08:09:00,26.1,25.1,30.04,SW,232,0.0,0.0,96,0.00,,,0.00,58,Wunderground v.1.15,2013-02-15 13:09:00,
2013-02-15 08:14:00,26.4,25.4,30.04,SW,232,0.0,0.0,96,0.00,,,0.00,65,Wunderground v.1.15,2013-02-15 13:14:00,
2013-02-15 08:24:00,27.0,26.0,30.04,SW,232,0.0,0.0,96,0.00,,,0.00,62,Wunderground v.1.15,2013-02-15 13:24:00,
2013-02-15 08:34:00,27.8,26.8,30.04,SW,232,0.0,0.0,96,0.00,,,0.00,53,Wunderground v.1.15,2013-02-15 13:34:00,
2013-02-15 08:44:00,28.7,27.7,30.04,SW,231,1.0,1.0,96,0.00,,,0.00,162,Wunderground v.1.15,2013-02-15 13:44:00,
2013-02-15 08:49:00,29.5,28.8,30.04,WSW,239,1.0,3.0,97,0.00,,,0.00,142,Wunderground v.1.15,2013-02-15 13:49:00,
2013-02-15 08:59:00,31.0,30.2,30.04,SW,236,1.0,1.0,97,0.00,,,0.00,70,Wunderground v.1.15,2013-02-15 13:59:00,
2013-02-15 09:09:00,32.6,31.8,30.04,SW,226,1.0,1.0,97,0.00,,,0.00,77,Wunderground v.1.15,2013-02-15 14:09:00,
2013-02-15 09:14:00,33.7,32.9,30.04,WSW,244,1.0,1.0,97,0.00,,,0.00,65,Wunderground v.1.15,2013-02-15 14:14:00,
2013-02-15 09:19:00,35.1,34.3,30.04,WSW,240,1.0,3.0,97,0.00,,,0.00,139,Wunderground v.1.15,2013-02-15 14:19:00,
2013-02-15 09:29:00,37.4,34.7,30.04,WNW,292,3.0,3.0,90,0.00,,,0.00,156,Wunderground v.1.15,2013-02-15 14:29:00,
2013-02-15 09:39:00,38.6,34.8,30.04,WSW,247,2.0,2.0,86,0.00,,,0.00,104,Wunderground v.1.15,2013-02-15 14:39:00,
2013-02-15 09:49:00,39.9,35.2,30.04,SW,221,2.0,2.0,83,0.00,,,0.00,142,Wunderground v.1.15,2013-02-15 14:49:00,
2013-02-15 09:59:00,41.3,35.0,30.04,NW,312,3.0,4.0,78,0.00,,,0.00,109,Wunderground v.1.15,2013-02-15 14:59:00,
2013-02-15 10:04:00,41.7,35.0,30.04,SW,223,5.0,6.0,77,0.00,,,0.00,120,Wunderground v.1.15,2013-02-15 15:04:00,
2013-02-15 10:14:00,42.4,34.7,30.04,WSW,240,4.0,5.0,74,0.00,,,0.00,54,Wunderground v.1.15,2013-02-15 15:14:00,
2013-02-15 10:24:00,43.0,34.9,30.04,WSW,247,2.0,6.0,73,0.00,,,0.00,193,Wunderground v.1.15,2013-02-15 15:24:00,
2013-02-15 10:34:00,43.8,35.0,30.04,WSW,240,3.0,6.0,71,0.00,,,0.00,144,Wunderground v.1.15,2013-02-15 15:34:00,
2013-02-15 10:39:00,44.1,34.9,30.04,WNW,290,3.0,3.0,70,0.00,,,0.00,193,Wunderground v.1.15,2013-02-15 15:39:00,
2013-02-15 10:49:00,45.0,34.7,30.04,West,279,3.0,6.0,67,0.00,,,0.00,253,Wunderground v.1.15,2013-02-15 15:49:00,
2013-02-15 10:54:00,45.4,35.1,30.04,WNW,294,4.0,6.0,67,0.00,,,0.00,69,Wunderground v.1.15,2013-02-15 15:54:00,
2013-02-15 11:04:00,46.2,35.1,30.03,SW,236,3.0,5.0,65,0.00,,,0.00,165,Wunderground v.1.15,2013-02-15 16:04:00,
2013-02-15 11:09:00,46.7,34.8,30.03,West,277,4.0,4.0,63,0.00,,,0.00,181,Wunderground v.1.15,2013-02-15 16:09:00,
2013-02-15 11:14:00,47.1,34.7,30.03,SSW,200,3.0,4.0,62,0.00,,,0.00,142,Wunderground v.1.15,2013-02-15 16:14:00,
2013-02-15 11:29:00,48.1,35.3,30.02,WSW,252,3.0,3.0,61,0.00,,,0.00,221,Wunderground v.1.15,2013-02-15 16:29:00,
2013-02-15 11:39:00,49.1,35.8,30.01,WSW,252,4.0,5.0,60,0.00,,,0.00,297,Wunderground v.1.15,2013-02-15 16:39:00,
2013-02-15 11:44:00,49.4,36.1,30.01,West,266,4.0,5.0,60,0.00,,,0.00,216,Wunderground v.1.15,2013-02-15 16:44:00,
2013-02-15 11:49:00,49.9,35.3,30.01,West,259,4.0,6.0,57,0.00,,,0.00,188,Wunderground v.1.15,2013-02-15 16:49:00,
2013-02-15 11:59:00,50.3,35.2,30.00,West,264,5.0,5.0,56,0.00,,,0.00,352,Wunderground v.1.15,2013-02-15 16:59:00,
2013-02-15 12:09:00,50.5,35.4,30.00,WSW,246,4.0,5.0,56,0.00,,,0.00,394,Wunderground v.1.15,2013-02-15 17:09:00,
2013-02-15 12:19:00,51.0,35.4,30.00,West,275,5.0,8.0,55,0.00,,,0.00,53,Wunderground v.1.15,2013-02-15 17:19:00,
2013-02-15 12:24:00,51.4,36.2,29.99,WSW,254,4.0,8.0,56,0.00,,,0.00,114,Wunderground v.1.15,2013-02-15 17:24:00,
2013-02-15 12:29:00,52.0,35.4,29.99,WSW,248,4.0,11.0,53,0.00,,,0.00,127,Wunderground v.1.15,2013-02-15 17:29:00,
2013-02-15 12:39:00,52.4,35.8,29.98,WNW,282,6.0,7.0,53,0.00,,,0.00,121,Wunderground v.1.15,2013-02-15 17:39:00,
2013-02-15 12:54:00,52.7,35.6,29.97,WNW,287,5.0,5.0,52,0.00,,,0.00,47,Wunderground v.1.15,2013-02-15 17:54:00,
2013-02-15 13:04:00,53.0,35.8,29.97,SW,227,4.0,6.0,52,0.00,,,0.00,56,Wunderground v.1.15,2013-02-15 18:04:00,
2013-02-15 13:14:00,53.7,35.5,29.96,WNW,295,5.0,6.0,50,0.00,,,0.00,137,Wunderground v.1.15,2013-02-15 18:14:00,
2013-02-15 13:24:00,54.1,35.3,29.96,West,262,4.0,5.0,49,0.00,,,0.00,185,Wunderground v.1.15,2013-02-15 18:24:00,
2013-02-15 13:39:00,54.2,35.4,29.96,SSW,195,2.0,2.0,49,0.00,,,0.00,40,Wunderground v.1.15,2013-02-15 18:39:00,
2013-02-15 13:49:00,54.4,35.6,29.95,WSW,256,3.0,7.0,49,0.00,,,0.00,221,Wunderground v.1.15,2013-02-15 18:49:00,
2013-02-15 13:59:00,54.5,34.1,29.95,West,261,4.0,4.0,46,0.00,,,0.00,121,Wunderground v.1.15,2013-02-15 18:59:00,
2013-02-15 14:04:00,55.0,34.0,29.95,WSW,238,4.0,9.0,45,0.00,,,0.00,97,Wunderground v.1.15,2013-02-15 19:04:00,
2013-02-15 14:14:00,54.9,33.9,29.95,NNW,338,5.0,8.0,45,0.00,,,0.00,60,Wunderground v.1.15,2013-02-15 19:14:00,
2013-02-15 14:24:00,54.9,35.0,29.94,WSW,254,3.0,7.0,47,0.00,,,0.00,74,Wunderground v.1.15,2013-02-15 19:24:00,
2013-02-15 14:29:00,54.9,34.5,29.94,WSW,242,4.0,4.0,46,0.00,,,0.00,144,Wunderground v.1.15,2013-02-15 19:29:00,
2013-02-15 14:39:00,54.6,35.3,29.94,SW,231,3.0,4.0,48,0.00,,,0.00,160,Wunderground v.1.15,2013-02-15 19:39:00,
2013-02-15 14:49:00,54.6,34.8,29.94,WSW,244,3.0,3.0,47,0.00,,,0.00,46,Wunderground v.1.15,2013-02-15 19:49:00,
2013-02-15 14:54:00,54.1,34.3,29.94,West,275,4.0,4.0,47,0.00,,,0.00,86,Wunderground v.1.15,2013-02-15 19:54:00,
2013-02-15 15:09:00,53.6,34.9,29.94,SW,229,2.0,4.0,49,0.00,,,0.00,53,Wunderground v.1.15,2013-02-15 20:09:00,
2013-02-15 15:14:00,53.4,34.7,29.94,WNW,282,2.0,4.0,49,0.00,,,0.00,69,Wunderground v.1.15,2013-02-15 20:14:00,
2013-02-15 15:24:00,53.3,35.1,29.94,WNW,302,3.0,5.0,50,0.00,,,0.00,76,Wunderground v.1.15,2013-02-15 20:24:00,
2013-02-15 15:29:00,53.3,35.1,29.94,NW,311,3.0,3.0,50,0.00,,,0.00,93,Wunderground v.1.15,2013-02-15 20:29:00,
2013-02-15 15:39:00,53.8,35.1,29.94,SW,233,2.0,3.0,49,0.00,,,0.00,81,Wunderground v.1.15,2013-02-15 20:39:00,
2013-02-15 15:44:00,53.7,35.0,29.94,WSW,240,3.0,3.0,49,0.00,,,0.00,79,Wunderground v.1.15,2013-02-15 20:44:00,
2013-02-15 15:54:00,54.0,34.7,29.94,WNW,298,3.0,5.0,48,0.00,,,0.00,65,Wunderground v.1.15,2013-02-15 20:54:00,
2013-02-15 15:59:00,53.9,35.2,29.94,West,281,2.0,2.0,49,0.00,,,0.00,90,Wunderground v.1.15,2013-02-15 20:59:00,
2013-02-15 16:04:00,53.6,34.9,29.94,SW,234,2.0,2.0,49,0.00,,,0.00,54,Wunderground v.1.15,2013-02-15 21:04:00,
2013-02-15 16:14:00,53.3,35.1,29.94,West,281,2.0,2.0,50,0.00,,,0.00,62,Wunderground v.1.15,2013-02-15 21:14:00,
2013-02-15 16:24:00,53.1,34.4,29.94,West,259,2.0,5.0,49,0.00,,,0.00,49,Wunderground v.1.15,2013-02-15 21:24:00,
2013-02-15 16:29:00,53.1,34.9,29.94,West,281,2.0,2.0,50,0.00,,,0.00,49,Wunderground v.1.15,2013-02-15 21:29:00,
2013-02-15 16:39:00,52.8,34.2,29.94,WNW,294,2.0,2.0,49,0.00,,,0.00,42,Wunderground v.1.15,2013-02-15 21:39:00,
2013-02-15 16:44:00,52.6,34.5,29.94,SW,232,2.0,2.0,50,0.00,,,0.00,28,Wunderground v.1.15,2013-02-15 21:44:00,
2013-02-15 16:54:00,52.1,34.0,29.94,WNW,295,2.0,2.0,50,0.00,,,0.00,25,Wunderground v.1.15,2013-02-15 21:54:00,
2013-02-15 16:59:00,51.7,35.6,29.94,WSW,258,1.0,1.0,54,0.00,,,0.00,26,Wunderground v.1.15,2013-02-15 21:59:00,
2013-02-15 17:09:00,50.5,34.9,29.94,WNW,283,1.0,1.0,55,0.00,,,0.00,18,Wunderground v.1.15,2013-02-15 22:09:00,
2013-02-15 17:19:00,49.6,35.8,29.94,WNW,292,0.0,0.0,59,0.00,,,0.00,11,Wunderground v.1.15,2013-02-15 22:19:00,
2013-02-15 17:29:00,48.5,34.8,29.94,WNW,293,0.0,1.0,59,0.00,,,0.00,0,Wunderground v.1.15,2013-02-15 22:29:00,
2013-02-15 17:34:00,47.9,36.3,29.94,WNW,299,0.0,1.0,64,0.00,,,0.00,0,Wunderground v.1.15,2013-02-15 22:34:00,
2013-02-15 17:44:00,46.8,35.3,29.94,North,11,1.0,5.0,64,0.00,,,0.00,0,Wunderground v.1.15,2013-02-15 22:44:00,
2013-02-15 17:49:00,46.7,34.4,29.94,NNW,348,0.0,0.0,62,0.00,,,0.00,0,Wunderground v.1.15,2013-02-15 22:49:00,
2013-02-15 17:59:00,46.3,33.2,29.94,WNW,298,0.0,0.0,60,0.00,,,0.00,0,Wunderground v.1.15,2013-02-15 22:59:00,
2013-02-15 18:04:00,45.9,34.4,29.94,WNW,298,0.0,0.0,64,0.00,,,0.00,0,Wunderground v.1.15,2013-02-15 23:04:00,
2013-02-15 18:14:00,44.7,33.3,29.94,WNW,298,0.0,0.0,64,0.00,,,0.00,0,Wunderground v.1.15,2013-02-15 23:14:00,
2013-02-15 18:24:00,43.2,33.3,29.94,WNW,298,0.0,0.0,68,0.00,,,0.00,0,Wunderground v.1.15,2013-02-15 23:24:00,
2013-02-15 18:29:00,42.4,32.9,29.94,WNW,298,0.0,0.0,69,0.00,,,0.00,0,Wunderground v.1.15,2013-02-15 23:29:00,
2013-02-15 18:39:00,41.3,33.0,29.95,WNW,298,0.0,0.0,72,0.00,,,0.00,0,Wunderground v.1.15,2013-02-15 23:39:00,
2013-02-15 18:44:00,40.6,32.6,29.95,WNW,298,0.0,0.0,73,0.00,,,0.00,0,Wunderground v.1.15,2013-02-15 23:44:00,
2013-02-15 18:54:00,39.6,32.7,29.95,WNW,298,0.0,0.0,76,0.00,,,0.00,0,Wunderground v.1.15,2013-02-15 23:54:00,
2013-02-15 18:59:00,39.1,32.5,29.95,WNW,298,0.0,0.0,77,0.00,,,0.00,0,Wunderground v.1.15,2013-02-15 23:59:00,
2013-02-15 19:09:00,38.3,32.0,29.95,WNW,298,0.0,0.0,78,0.00,,,0.00,0,Wunderground v.1.15,2013-02-16 00:09:00,
2013-02-15 19:14:00,37.9,32.0,29.95,WNW,298,0.0,0.0,79,0.00,,,0.00,0,Wunderground v.1.15,2013-02-16 00:14:00,
2013-02-15 19:24:00,37.5,32.5,29.94,WNW,298,0.0,0.0,82,0.00,,,0.00,0,Wunderground v.1.15,2013-02-16 00:24:00,
2013-02-15 19:34:00,37.3,32.6,29.95,WNW,298,0.0,0.0,83,0.00,,,0.00,0,Wunderground v.1.15,2013-02-16 00:34:00,
2013-02-15 19:44:00,37.0,32.6,29.95,WNW,298,0.0,0.0,84,0.00,,,0.00,0,Wunderground v.1.15,2013-02-16 00:44:00,
2013-02-15 19:49:00,36.9,32.5,29.95,WNW,298,0.0,0.0,84,0.00,,,0.00,0,Wunderground v.1.15,2013-02-16 00:49:00,
2013-02-15 19:59:00,37.2,32.8,29.95,WNW,298,0.0,0.0,84,0.00,,,0.00,0,Wunderground v.1.15,2013-02-16 00:59:00,
2013-02-15 20:09:00,37.3,32.6,29.96,WNW,298,0.0,0.0,83,0.00,,,0.00,0,Wunderground v.1.15,2013-02-16 01:09:00,
2013-02-15 20:19:00,37.5,33.4,29.96,WNW,298,0.0,0.0,85,0.00,,,0.00,0,Wunderground v.1.15,2013-02-16 01:19:00,
2013-02-15 20:24:00,37.8,33.7,29.96,WNW,298,0.0,0.0,85,0.00,,,0.00,0,Wunderground v.1.15,2013-02-16 01:24:00,
2013-02-15 20:39:00,38.2,33.5,29.95,WNW,298,0.0,2.0,83,0.00,,,0.00,0,Wunderground v.1.15,2013-02-16 01:39:00,
2013-02-15 20:49:00,38.3,32.7,29.96,WNW,283,1.0,1.0,80,0.00,,,0.00,0,Wunderground v.1.15,2013-02-16 01:49:00,
2013-02-15 20:59:00,39.5,31.2,29.97,West,265,1.0,4.0,72,0.00,,,0.00,0,Wunderground v.1.15,2013-02-16 01:59:00,
2013-02-15 21:09:00,41.3,30.8,29.97,West,273,2.0,2.0,66,0.00,,,0.00,0,Wunderground v.1.15,2013-02-16 02:09:00,
2013-02-15 21:19:00,42.1,30.4,29.97,NNW,333,2.0,2.0,63,0.00,,,0.00,0,Wunderground v.1.15,2013-02-16 02:19:00,
2013-02-15 21:29:00,42.7,30.6,29.98,NW,306,4.0,6.0,62,0.00,,,0.00,0,Wunderground v.1.15,2013-02-16 02:29:00,
2013-02-15 21:39:00,43.1,31.7,29.99,WNW,284,6.0,6.0,64,0.00,,,0.00,0,Wunderground v.1.15,2013-02-16 02:39:00,
2013-02-15 21:49:00,42.9,32.3,29.99,WNW,293,3.0,3.0,66,0.00,,,0.00,0,Wunderground v.1.15,2013-02-16 02:49:00,
2013-02-15 21:59:00,42.3,33.2,30.00,WNW,298,5.0,8.0,70,0.00,,,0.00,0,Wunderground v.1.15,2013-02-16 02:59:00,
2013-02-15 22:04:00,41.9,33.9,30.01,WSW,250,6.0,8.0,73,0.00,,,0.00,0,Wunderground v.1.15,2013-02-16 03:04:00,
2013-02-15 22:09:00,41.5,34.2,30.01,WNW,295,5.0,5.0,75,0.00,,,0.00,0,Wunderground v.1.15,2013-02-16 03:09:00,
2013-02-15 22:19:00,40.6,34.3,30.01,NW,323,4.0,5.0,78,0.00,,,0.00,0,Wunderground v.1.15,2013-02-16 03:19:00,
2013-02-15 22:24:00,40.2,34.2,30.01,NW,309,4.0,5.0,79,0.00,,,0.00,0,Wunderground v.1.15,2013-02-16 03:24:00,
2013-02-15 22:34:00,39.5,34.5,30.01,West,269,3.0,7.0,82,0.00,,,0.00,0,Wunderground v.1.15,2013-02-16 03:34:00,
2013-02-15 22:39:00,39.0,34.6,30.01,NW,318,4.0,7.0,84,0.00,,,0.00,0,Wunderground v.1.15,2013-02-16 03:39:00,
2013-02-15 22:49:00,38.2,34.4,30.02,NW,310,3.0,4.0,86,0.00,,,0.00,0,Wunderground v.1.15,2013-02-16 03:49:00,
2013-02-15 22:59:00,37.6,34.4,30.01,NW,309,3.0,4.0,88,0.00,,,0.00,0,Wunderground v.1.15,2013-02-16 03:59:00,
2013-02-15 23:04:00,37.2,34.0,30.01,NW,321,4.0,4.0,88,0.00,,,0.00,0,Wunderground v.1.15,2013-02-16 04:04:00,
2013-02-15 23:14:00,36.6,33.9,30.01,NW,311,3.0,4.0,90,0.00,,,0.01,0,Wunderground v.1.15,2013-02-16 04:14:00,
2013-02-15 23:24:00,36.2,33.8,30.02,WNW,290,1.0,4.0,91,0.00,,,0.01,0,Wunderground v.1.15,2013-02-16 04:24:00,
2013-02-15 23:34:00,35.9,33.8,30.01,WNW,290,1.0,1.0,92,0.05,,,0.02,0,Wunderground v.1.15,2013-02-16 04:34:00,
2013-02-15 23:44:00,35.5,33.4,30.01,WNW,292,2.0,3.0,92,0.04,,,0.03,0,Wunderground v.1.15,2013-02-16 04:44:00,
2013-02-15 23:54:00,35.1,33.0,30.00,WNW,298,1.0,1.0,92,0.07,,,0.04,0,Wunderground v.1.15,2013-02-16 04:54:00,